Marion-Critt Cnty AP, Marion,, KY

12:40 PM CDT on May 26, 2017 (GMT -0500)
Marion-Critt Cnty AP, Marion,

Weather History for K5M9 - April, 2014

Change the Weather History Date:

Friday, April 25, 2014

  Actual Average (KEHR) Record (KEHR)
Temperature  
Mean Temperature 62 °F -  
Max Temperature 71 °F 69 °F 88 °F (1989)
Min Temperature 53 °F 45 °F 34 °F (1934)
Degree Days  
Heating Degree Days 3    
Growing Degree Days 12 (Base 50)    
Moisture  
Dew Point 46 °F    
Average Humidity 62    
Maximum Humidity 97    
Minimum Humidity 29    
Precipitation  
Precipitation 0.00 in - - ()
Sea Level Pressure  
Sea Level Pressure 29.87 in    
Wind  
Wind Speed 8 mph (WNW)    
Max Wind Speed 15 mph    
Max Gust Speed 25 mph    
Visibility 10 miles    
Events Rain    
Averages and records for this station are not official NWS values.
T = Trace of Precipitation, MM = Missing Value Source: NWS Daily Summary

Daily Weather History Graph

Daily Weather History Graph

Search for Another Location

Airport or City:

Trip Planner

Search our weather history database for the weather conditions in past years. The results will help you decide how hot, cold, wet, or windy it might be!

Date:

Astronomy

Apr. 25, 2014 Rise Set
Actual Time 6:04 AM CDT 7:36 PM CDT
Civil Twilight 5:37 AM CDT 8:04 PM CDT
Nautical Twilight 5:03 AM CDT 8:37 PM CDT
Astronomical Twilight 4:29 AM CDT 9:12 PM CDT
Moon 3:47 AM CDT (4/25) 4:03 PM CDT (4/25)
Length of Visible Light 14h 27m
Length of Day
13h 32m
Waning Crescent, 15% of the Moon is Illuminated
Apr 25
Waning Crescent
Apr 29
New
May 6
First Quarter
May 14
Full
May 21
Last Quarter

Hourly Weather History & Observations

Time (CDT) Temp. Dew Point Humidity Pressure Visibility Wind Dir Wind Speed Gust Speed Precip Events Conditions
12:15 AM 59.7 °F 58.1 °F 94% 29.66 in 10.0 mi South 3.5 mph - N/A   Overcast
12:35 AM 59.4 °F 58.3 °F 96% 29.66 in 2.0 mi WSW 13.8 mph 20.7 mph N/A Rain Heavy Rain
12:55 AM 59.9 °F 58.1 °F 94% 29.66 in 3.0 mi SSW 9.2 mph 25.3 mph N/A Rain Light Rain
1:15 AM 60.6 °F 58.5 °F 93% 29.66 in 10.0 mi WSW 13.8 mph 21.9 mph N/A   Overcast
1:55 AM 59.0 °F 56.7 °F 92% 29.65 in 10.0 mi West 6.9 mph - N/A   Mostly Cloudy
2:15 AM 58.5 °F 56.7 °F 94% 29.66 in 10.0 mi WSW 6.9 mph - N/A   Overcast
2:35 AM 58.1 °F 56.3 °F 94% 29.64 in 10.0 mi SW 3.5 mph - N/A   Overcast
2:55 AM 57.4 °F 55.4 °F 93% 29.67 in 10.0 mi West 9.2 mph - N/A   Mostly Cloudy
3:15 AM 57.2 °F 55.2 °F 93% 29.67 in 10.0 mi West 10.4 mph 16.1 mph N/A   Overcast
3:35 AM 56.3 °F 54.5 °F 94% 29.68 in 10.0 mi West 9.2 mph 16.1 mph N/A   Overcast
3:55 AM 56.3 °F 54.7 °F 94% 29.68 in 10.0 mi West 10.4 mph - N/A Rain Rain
4:15 AM 55.9 °F 54.9 °F 96% 29.67 in 10.0 mi West 9.2 mph - N/A   Drizzle
4:35 AM 56.3 °F 55.4 °F 97% 29.69 in 10.0 mi WNW 6.9 mph - N/A   Light Drizzle
4:55 AM 56.3 °F 55.4 °F 97% 29.69 in 10.0 mi West 6.9 mph - N/A   Overcast
5:15 AM 56.3 °F 55.4 °F 97% 29.71 in 10.0 mi West 9.2 mph - N/A   Overcast
5:35 AM 56.5 °F 55.2 °F 96% 29.73 in 7.0 mi WNW 11.5 mph 17.3 mph N/A Rain Heavy Rain
5:55 AM 55.8 °F 54.1 °F 94% 29.74 in 5.0 mi NW 11.5 mph 20.7 mph N/A   Drizzle
6:15 AM 55.4 °F 53.8 °F 94% 29.76 in 7.0 mi WNW 12.7 mph 21.9 mph N/A Rain Rain
6:35 AM 55.4 °F 54.0 °F 95% 29.78 in 10.0 mi West 10.4 mph - N/A   Overcast
6:55 AM 54.5 °F 52.5 °F 93% 29.80 in 7.0 mi WNW 15.0 mph 21.9 mph N/A   Light Drizzle
7:15 AM 54.1 °F 52.0 °F 92% 29.81 in 10.0 mi NW 12.7 mph 19.6 mph N/A   Overcast
7:35 AM 54.0 °F 51.6 °F 92% 29.83 in 10.0 mi WNW 10.4 mph 19.6 mph N/A   Overcast
7:55 AM 53.8 °F 51.3 °F 91% 29.84 in 7.0 mi WNW 6.9 mph 16.1 mph N/A   Overcast
8:15 AM 53.6 °F 51.1 °F 91% 29.86 in 7.0 mi WNW 12.7 mph 19.6 mph N/A   Overcast
8:35 AM 54.0 °F 51.3 °F 91% 29.86 in 10.0 mi WNW 6.9 mph - N/A   Overcast
8:55 AM 54.7 °F 51.1 °F 88% 29.88 in 10.0 mi WNW 9.2 mph 19.6 mph N/A   Overcast
9:15 AM 56.8 °F 50.4 °F 79% 29.88 in 10.0 mi NW 11.5 mph - N/A   Mostly Cloudy
9:35 AM 58.5 °F 49.8 °F 73% 29.89 in 10.0 mi NNW 10.4 mph - N/A   Scattered Clouds
9:55 AM 59.9 °F 48.0 °F 65% 29.90 in 10.0 mi NW 12.7 mph 16.1 mph N/A   Clear
10:15 AM 61.2 °F 46.8 °F 59% 29.90 in 10.0 mi NNW 9.2 mph - N/A   Clear
10:35 AM 62.8 °F 44.6 °F 51% 29.91 in 10.0 mi NNW 8.1 mph 23.0 mph N/A   Clear
10:55 AM 63.7 °F 42.3 °F 46% 29.92 in 10.0 mi NNW 10.4 mph 17.3 mph N/A   Clear
11:15 AM 64.9 °F 43.2 °F 45% 29.93 in 10.0 mi NNW 10.4 mph - N/A   Clear
11:35 AM 65.1 °F 40.3 °F 40% 29.94 in 10.0 mi North 11.5 mph 20.7 mph N/A   Clear
11:55 AM 66.6 °F 39.6 °F 37% 29.94 in 10.0 mi North 11.5 mph 20.7 mph N/A   Clear
12:15 PM 66.0 °F 37.9 °F 36% 29.95 in 10.0 mi North 15.0 mph 19.6 mph N/A   Clear
12:35 PM 66.4 °F 37.6 °F 35% 29.95 in 10.0 mi NNW 13.8 mph 21.9 mph N/A   Clear
12:55 PM 67.3 °F 38.3 °F 35% 29.96 in 10.0 mi North 15.0 mph 19.6 mph N/A   Clear
1:15 PM 67.3 °F 39.7 °F 36% 29.96 in 10.0 mi NNW 9.2 mph - N/A   Clear
1:35 PM 68.2 °F 40.8 °F 37% 29.96 in 10.0 mi North 6.9 mph - N/A   Clear
1:55 PM 68.7 °F 39.6 °F 34% 29.96 in 10.0 mi NNW 12.7 mph 19.6 mph N/A   Clear
2:15 PM 68.9 °F 39.7 °F 35% 29.96 in 10.0 mi NNW 9.2 mph 19.6 mph N/A   Clear
2:35 PM 69.3 °F 40.8 °F 36% 29.96 in 10.0 mi NW 8.1 mph - N/A   Clear
2:55 PM 69.3 °F 41.0 °F 36% 29.96 in 10.0 mi NNW 8.1 mph - N/A   Clear
3:15 PM 70.0 °F 41.4 °F 35% 29.96 in 10.0 mi NNW 6.9 mph - N/A   Clear
3:35 PM 70.5 °F 41.5 °F 35% 29.96 in 10.0 mi NW 6.9 mph - N/A   Clear
3:55 PM 70.3 °F 39.7 °F 33% 29.95 in 10.0 mi NNW 6.9 mph 16.1 mph N/A   Clear
4:15 PM 70.3 °F 40.1 °F 33% 29.95 in 10.0 mi North 4.6 mph - N/A   Clear
4:35 PM 70.7 °F 41.7 °F 35% 29.94 in 10.0 mi NW 8.1 mph - N/A   Clear
4:55 PM 70.9 °F 41.2 °F 34% 29.94 in 10.0 mi NNE 4.6 mph - N/A   Clear
5:15 PM 71.1 °F 39.7 °F 32% 29.94 in 10.0 mi NW 5.8 mph - N/A   Clear
5:35 PM 70.7 °F 39.0 °F 32% 29.94 in 10.0 mi SW 4.6 mph - N/A   Clear
5:55 PM 70.7 °F 38.8 °F 31% 29.94 in 10.0 mi West 4.6 mph - N/A   Clear
6:15 PM 70.2 °F 37.6 °F 30% 29.93 in 10.0 mi WNW 4.6 mph - N/A   Clear
6:35 PM 69.4 °F 36.7 °F 30% 29.94 in 10.0 mi West 3.5 mph - N/A   Clear
6:55 PM 69.1 °F 35.8 °F 29% 29.94 in 10.0 mi Calm Calm - N/A   Clear
7:15 PM 68.5 °F 37.2 °F 32% 29.94 in 10.0 mi Calm Calm - N/A   Clear
7:35 PM 65.8 °F 37.2 °F 35% 29.94 in 10.0 mi Calm Calm - N/A   Clear
7:55 PM 64.8 °F 37.6 °F 37% 29.95 in 10.0 mi SW 3.5 mph - N/A   Clear
8:15 PM 61.0 °F 40.5 °F 47% 29.95 in 10.0 mi SSW 3.5 mph - N/A   Clear
8:35 PM 59.9 °F 42.8 °F 53% 29.95 in 10.0 mi SSW 3.5 mph - N/A   Clear
8:55 PM 60.1 °F 39.0 °F 46% 29.96 in 10.0 mi South 3.5 mph - N/A   Clear
9:15 PM 58.8 °F 40.8 °F 51% 29.96 in 10.0 mi Calm Calm - N/A   Clear
9:35 PM 57.7 °F 42.1 °F 56% 29.97 in 10.0 mi South 4.6 mph - N/A   Clear
9:55 PM 57.4 °F 41.0 °F 54% 29.96 in 10.0 mi South 3.5 mph - N/A   Clear
10:15 PM 56.7 °F 41.5 °F 57% 29.97 in 10.0 mi South 3.5 mph - N/A   Clear
10:35 PM 56.3 °F 42.3 °F 59% 29.96 in 10.0 mi South 3.5 mph - N/A   Clear
10:55 PM 55.0 °F 43.5 °F 65% 29.96 in 10.0 mi South 4.6 mph - N/A   Clear
11:15 PM 55.6 °F 43.3 °F 63% 29.96 in 10.0 mi SSW 4.6 mph - N/A   Clear
11:35 PM 58.3 °F 40.6 °F 52% 29.96 in 10.0 mi SSW 3.5 mph - N/A   Clear
11:55 PM 57.0 °F 40.1 °F 53% 29.95 in 10.0 mi Calm Calm - N/A   Clear